STARLINK-38008, 69724

Orbit data source: Space-Track

STARLINK-38008, 69724 is a payload satellite owned by SpaceX/Seattle (US) in SSO that was launched on Sun, 28 Jun 2026 UTC via an FALCON 9 launch vehicle from the Air Force Western Test Range (AFWTR). Payload-class satellites include a variety of spacecraft equipped with specific instruments for various scientific and technological missions. These include communications satellites like Starlink; space stations such as the ISS; scientific satellites like the Hubble; Earth observation satellites from companies like Planet Labs, Umbra, and HawkEye 360; GPS; miniature CubeSats for education and research; and military/defense satellites.

Loading next visibility...
Identifier
69724, 2026-147W
Orbit
SSO
Country
Flag of USUS
Related business
Manufacturer
SpaceX/Seattle
Mission
Operational Commercial Communications
Bus & Motor
STARLINK V2MO, Unknown motor
Mass
575 kg wet, ~530 kg dry
Launch date (UTC)
2026-06-28 (2 months ago)
Launch vehicle
FALCON 9
Launch site
Air Force Western Test Range (AFWTR)
Object type
Payload
Rocket body
Debris
Shape & HBR
Box + 1 Pan, 17.7 m
Radar Cross Section
41.120 m², Large (>1 m²)

Expand to show TLE details & history
Last TLE update: 1 day ago

TLE from 1 day ago
0 STARLINK-38008
1 69724U 26147W   26236.06936273  .00016737  00000-0  51939-3 0  9997
2 69724  97.2850 272.8809 0001536  91.8770 268.2648 15.33458282 10035
Epoch: 2026-08-24T01:39Z
TLE epoch observation values (Epoch: 2026-08-24T01:39:52.939Z)
Latitude
-0.00011°
Longitude
-84.44602°
Altitude
468.648 km
Speed
7.632 km/s
True Right ascension
18h 11m 31s
True Declination
0° 00' 00"
Sunlit
Object was in full shadow at epoch
Visualization orbit readout
Latitude
Unknown
Longitude
Unknown
Altitude
Unknown
Speed
Unknown
Apparent Right ascension
Unknown
Apparent Declination
Unknown
Sunlit
N/A
Visualization observer readout
Local Sidereal Time
00:12:12
Azimuth
Unknown
Elevation
Unknown
Doppler factor
Unknown
Orbital elements
Apogee altitude
463.497 km
Perigee altitude
461.396 km
Semi-major axis
6,840.583 km
Eccentricity
0.00015
Inclination
97.285°
RAAN
272.8809°
Arg. of periapsis
91.877°
True anomaly
268.24721°
Mean anomaly
268.2648°
Eccentric anomaly
268.256°
Mean motion
3.83622 °/min
Orbital period
93.84 mins
BSTAR
0.00051939
Loading maneuver chart data...
Computing Atmospheric mass density...
Loading historical data...
Loading historical data...
Loading historical data...
Loading historical data...
Loading historical data...
Loading historical data...
Loading historical data...

Documentation

Showing up to 5 results
|